Time,TemperatureF,DewpointF,PressureIn,WindDirection,WindDirectionDegrees,WindSpeedMPH,WindSpeedGustMPH,Humidity,HourlyPrecipIn,Conditions,Clouds,dailyrainin,SoftwareType,DateUTC
2013-02-28 00:07:00,41.8,12.0,30.20,ESE,115,18.0,24.0,29,0.00,,,0.00,weatherlink.com 1.10,2013-02-28 07:07:00,
2013-02-28 00:22:00,41.9,11.0,30.20,ENE,71,17.0,26.0,28,0.00,,,0.00,weatherlink.com 1.10,2013-02-28 07:22:00,
2013-02-28 00:37:00,41.7,11.0,30.20,ENE,75,16.0,24.0,29,0.00,,,0.00,weatherlink.com 1.10,2013-02-28 07:37:00,
2013-02-28 00:52:00,41.7,11.0,30.20,ENE,58,14.0,24.0,28,0.00,,,0.00,weatherlink.com 1.10,2013-02-28 07:52:00,
2013-02-28 01:07:00,41.8,11.0,30.20,ESE,115,23.0,26.0,28,0.00,,,0.00,weatherlink.com 1.10,2013-02-28 08:07:00,
2013-02-28 01:22:00,41.7,11.0,30.20,East,80,13.0,24.0,28,0.00,,,0.00,weatherlink.com 1.10,2013-02-28 08:22:00,
2013-02-28 01:37:00,41.7,11.0,30.20,East,83,12.0,25.0,28,0.00,,,0.00,weatherlink.com 1.10,2013-02-28 08:37:00,
2013-02-28 01:52:00,41.5,11.0,30.20,ENE,57,13.0,27.0,29,0.00,,,0.00,weatherlink.com 1.10,2013-02-28 08:52:00,
2013-02-28 02:07:00,41.2,11.0,30.19,East,91,18.0,24.0,29,0.00,,,0.00,weatherlink.com 1.10,2013-02-28 09:07:00,
2013-02-28 02:22:00,41.1,11.0,30.18,East,93,20.0,26.0,29,0.00,,,0.00,weatherlink.com 1.10,2013-02-28 09:22:00,
2013-02-28 02:37:00,41.1,12.0,30.18,ENE,74,21.0,24.0,30,0.00,,,0.00,weatherlink.com 1.10,2013-02-28 09:37:00,
2013-02-28 02:52:00,40.7,11.0,30.18,East,84,15.0,24.0,30,0.00,,,0.00,weatherlink.com 1.10,2013-02-28 09:52:00,
2013-02-28 03:07:00,40.1,11.0,30.16,ESE,111,16.0,23.0,30,0.00,,,0.00,weatherlink.com 1.10,2013-02-28 10:07:00,
2013-02-28 03:22:00,40.0,11.0,30.17,ENE,75,21.0,24.0,31,0.00,,,0.00,weatherlink.com 1.10,2013-02-28 10:22:00,
2013-02-28 03:37:00,40.2,12.0,30.19,East,84,19.0,25.0,31,0.00,,,0.00,weatherlink.com 1.10,2013-02-28 10:37:00,
2013-02-28 03:52:00,40.1,12.0,30.18,East,101,17.0,22.0,31,0.00,,,0.00,weatherlink.com 1.10,2013-02-28 10:52:00,
2013-02-28 04:07:00,39.6,11.0,30.18,East,101,17.0,22.0,31,0.00,,,0.00,weatherlink.com 1.10,2013-02-28 11:07:00,
2013-02-28 04:22:00,39.0,11.0,30.18,ESE,121,16.0,22.0,32,0.00,,,0.00,weatherlink.com 1.10,2013-02-28 11:22:00,
2013-02-28 04:37:00,38.8,11.0,30.19,ENE,71,16.0,21.0,32,0.00,,,0.00,weatherlink.com 1.10,2013-02-28 11:37:00,
2013-02-28 04:52:00,39.2,11.0,30.20,East,86,15.0,20.0,32,0.00,,,0.00,weatherlink.com 1.10,2013-02-28 11:52:00,
2013-02-28 05:07:00,39.2,11.0,30.20,ESE,103,9.0,22.0,32,0.00,,,0.00,weatherlink.com 1.10,2013-02-28 12:07:00,
2013-02-28 05:22:00,39.2,11.0,30.20,ENE,65,14.0,21.0,32,0.00,,,0.00,weatherlink.com 1.10,2013-02-28 12:22:00,
2013-02-28 05:37:00,39.2,11.0,30.20,East,94,14.0,21.0,32,0.00,,,0.00,weatherlink.com 1.10,2013-02-28 12:37:00,
2013-02-28 05:52:00,39.2,11.0,30.20,East,93,15.0,22.0,32,0.00,,,0.00,weatherlink.com 1.10,2013-02-28 12:52:00,
2013-02-28 06:07:00,39.1,11.0,30.21,East,90,14.0,21.0,32,0.00,,,0.00,weatherlink.com 1.10,2013-02-28 13:07:00,
2013-02-28 06:22:00,39.1,12.0,30.21,ESE,103,17.0,20.0,33,0.00,,,0.00,weatherlink.com 1.10,2013-02-28 13:22:00,
2013-02-28 06:38:00,39.2,12.0,30.22,East,87,10.0,21.0,33,0.00,,,0.00,weatherlink.com 1.10,2013-02-28 13:38:00,
2013-02-28 06:53:00,39.1,12.0,30.23,SE,130,14.0,21.0,33,0.00,,,0.00,weatherlink.com 1.10,2013-02-28 13:53:00,
2013-02-28 07:08:00,38.9,12.0,30.24,East,91,12.0,19.0,33,0.00,,,0.00,weatherlink.com 1.10,2013-02-28 14:08:00,
2013-02-28 07:23:00,38.9,12.0,30.24,SE,129,10.0,18.0,33,0.00,,,0.00,weatherlink.com 1.10,2013-02-28 14:23:00,
2013-02-28 07:38:00,39.5,12.0,30.25,East,91,13.0,19.0,33,0.00,,,0.00,weatherlink.com 1.10,2013-02-28 14:38:00,
2013-02-28 07:53:00,40.4,13.0,30.26,ENE,66,9.0,12.0,32,0.00,,,0.00,weatherlink.com 1.10,2013-02-28 14:53:00,
2013-02-28 08:08:00,41.2,13.0,30.27,ESE,106,5.0,11.0,32,0.00,,,0.00,weatherlink.com 1.10,2013-02-28 15:08:00,
2013-02-28 08:23:00,41.3,13.0,30.29,WSW,250,2.0,5.0,32,0.00,,,0.00,weatherlink.com 1.10,2013-02-28 15:23:00,
2013-02-28 08:38:00,42.1,13.0,30.29,WNW,287,0.0,2.0,31,0.00,,,0.00,weatherlink.com 1.10,2013-02-28 15:38:00,
2013-02-28 08:53:00,42.0,13.0,30.30,WNW,300,1.0,5.0,31,0.00,,,0.00,weatherlink.com 1.10,2013-02-28 15:53:00,
2013-02-28 09:08:00,42.1,13.0,30.30,NW,306,2.0,5.0,30,0.00,,,0.00,weatherlink.com 1.10,2013-02-28 16:08:00,
2013-02-28 09:23:00,42.5,12.0,30.30,West,276,2.0,4.0,29,0.00,,,0.00,weatherlink.com 1.10,2013-02-28 16:23:00,
2013-02-28 09:38:00,43.1,13.0,30.30,WNW,284,3.0,5.0,29,0.00,,,0.00,weatherlink.com 1.10,2013-02-28 16:38:00,
2013-02-28 09:53:00,42.8,13.0,30.30,WNW,298,1.0,6.0,30,0.00,,,0.00,weatherlink.com 1.10,2013-02-28 16:53:00,
2013-02-28 10:08:00,43.8,14.0,30.30,WNW,298,4.0,6.0,30,0.00,,,0.00,weatherlink.com 1.10,2013-02-28 17:08:00,
2013-02-28 10:23:00,44.5,14.0,30.30,WNW,302,5.0,6.0,29,0.00,,,0.00,weatherlink.com 1.10,2013-02-28 17:23:00,
2013-02-28 10:38:00,45.1,14.0,30.30,WNW,300,4.0,7.0,28,0.00,,,0.00,weatherlink.com 1.10,2013-02-28 17:38:00,
2013-02-28 10:53:00,46.2,14.0,30.30,SW,219,2.0,5.0,27,0.00,,,0.00,weatherlink.com 1.10,2013-02-28 17:53:00,
2013-02-28 11:08:00,48.8,13.0,30.29,SSW,194,2.0,6.0,24,0.00,,,0.00,weatherlink.com 1.10,2013-02-28 18:08:00,
2013-02-28 11:23:00,50.3,14.0,30.29,West,269,3.0,7.0,23,0.00,,,0.00,weatherlink.com 1.10,2013-02-28 18:23:00,
2013-02-28 11:38:00,49.7,14.0,30.28,SSE,155,2.0,7.0,24,0.00,,,0.00,weatherlink.com 1.10,2013-02-28 18:38:00,
2013-02-28 11:53:00,50.3,14.0,30.28,ENE,72,7.0,7.0,23,0.00,,,0.00,weatherlink.com 1.10,2013-02-28 18:53:00,
2013-02-28 12:08:00,50.5,15.0,30.27,SSW,198,4.0,12.0,24,0.00,,,0.00,weatherlink.com 1.10,2013-02-28 19:08:00,
2013-02-28 12:23:00,51.1,13.0,30.26,ESE,110,4.0,6.0,22,0.00,,,0.00,weatherlink.com 1.10,2013-02-28 19:23:00,
2013-02-28 12:38:00,52.0,14.0,30.25,WNW,291,2.0,6.0,22,0.00,,,0.00,weatherlink.com 1.10,2013-02-28 19:38:00,
2013-02-28 12:53:00,51.9,13.0,30.25,West,278,5.0,11.0,21,0.00,,,0.00,weatherlink.com 1.10,2013-02-28 19:53:00,
2013-02-28 13:08:00,51.5,13.0,30.24,SE,131,3.0,9.0,21,0.00,,,0.00,weatherlink.com 1.10,2013-02-28 20:08:00,
2013-02-28 13:23:00,51.7,13.0,30.24,West,281,3.0,7.0,21,0.00,,,0.00,weatherlink.com 1.10,2013-02-28 20:23:00,
2013-02-28 13:38:00,51.7,12.0,30.23,SW,232,4.0,7.0,20,0.00,,,0.00,weatherlink.com 1.10,2013-02-28 20:38:00,
2013-02-28 13:53:00,52.5,12.0,30.23,WNW,303,6.0,8.0,20,0.00,,,0.00,weatherlink.com 1.10,2013-02-28 20:53:00,
2013-02-28 14:08:00,52.6,11.0,30.22,SW,219,7.0,9.0,19,0.00,,,0.00,weatherlink.com 1.10,2013-02-28 21:08:00,
2013-02-28 14:23:00,52.3,11.0,30.23,NE,49,2.0,11.0,19,0.00,,,0.00,weatherlink.com 1.10,2013-02-28 21:23:00,
2013-02-28 14:39:00,54.5,10.0,30.23,West,273,1.0,5.0,17,0.00,,,0.00,weatherlink.com 1.10,2013-02-28 21:39:00,
2013-02-28 14:54:00,54.2,9.0,30.22,NNE,16,7.0,7.0,16,0.00,,,0.00,weatherlink.com 1.10,2013-02-28 21:54:00,
2013-02-28 15:09:00,53.3,8.0,30.23,West,281,6.0,11.0,16,0.00,,,0.00,weatherlink.com 1.10,2013-02-28 22:09:00,
2013-02-28 15:24:00,53.5,7.0,30.23,WSW,246,2.0,9.0,15,0.00,,,0.00,weatherlink.com 1.10,2013-02-28 22:24:00,
2013-02-28 15:39:00,54.3,7.0,30.23,WSW,246,5.0,9.0,15,0.00,,,0.00,weatherlink.com 1.10,2013-02-28 22:39:00,
2013-02-28 15:54:00,53.6,7.0,30.23,WNW,290,7.0,12.0,15,0.00,,,0.00,weatherlink.com 1.10,2013-02-28 22:54:00,
2013-02-28 16:09:00,53.7,8.0,30.23,NW,307,5.0,10.0,16,0.00,,,0.00,weatherlink.com 1.10,2013-02-28 23:09:00,
2013-02-28 16:24:00,53.7,7.0,30.23,West,263,5.0,9.0,15,0.00,,,0.00,weatherlink.com 1.10,2013-02-28 23:24:00,
2013-02-28 16:39:00,54.6,6.0,30.22,WNW,297,2.0,7.0,14,0.00,,,0.00,weatherlink.com 1.10,2013-02-28 23:39:00,
2013-02-28 16:54:00,53.2,5.0,30.22,WNW,300,4.0,9.0,14,0.00,,,0.00,weatherlink.com 1.10,2013-02-28 23:54:00,
2013-02-28 17:09:00,53.1,5.0,30.21,WNW,300,3.0,7.0,14,0.00,,,0.00,weatherlink.com 1.10,2013-03-01 00:09:00,
2013-02-28 17:24:00,53.0,5.0,30.21,NW,311,4.0,6.0,14,0.00,,,0.00,weatherlink.com 1.10,2013-03-01 00:24:00,
2013-02-28 17:39:00,53.4,5.0,30.20,WNW,287,2.0,3.0,14,0.00,,,0.00,weatherlink.com 1.10,2013-03-01 00:39:00,
2013-02-28 17:54:00,52.0,5.0,30.21,NW,314,2.0,4.0,15,0.00,,,0.00,weatherlink.com 1.10,2013-03-01 00:54:00,
2013-02-28 18:09:00,50.1,5.0,30.21,WNW,299,0.0,2.0,16,0.00,,,0.00,weatherlink.com 1.10,2013-03-01 01:09:00,
2013-02-28 18:24:00,48.5,4.0,30.21,WNW,300,0.0,0.0,16,0.00,,,0.00,weatherlink.com 1.10,2013-03-01 01:24:00,
2013-02-28 18:39:00,48.2,4.0,30.22,NNW,343,0.0,2.0,16,0.00,,,0.00,weatherlink.com 1.10,2013-03-01 01:39:00,
2013-02-28 18:54:00,47.2,4.0,30.22,NNW,343,0.0,0.0,17,0.00,,,0.00,weatherlink.com 1.10,2013-03-01 01:54:00,
2013-02-28 19:09:00,47.7,5.0,30.23,NNE,20,0.0,0.0,17,0.00,,,0.00,weatherlink.com 1.10,2013-03-01 02:09:00,
2013-02-28 19:24:00,47.9,3.0,30.23,ENE,75,0.0,1.0,16,0.00,,,0.00,weatherlink.com 1.10,2013-03-01 02:24:00,
2013-02-28 19:39:00,48.2,4.0,30.24,ENE,74,0.0,0.0,16,0.00,,,0.00,weatherlink.com 1.10,2013-03-01 02:39:00,
2013-02-28 19:54:00,47.4,3.0,30.23,NNE,27,0.0,0.0,16,0.00,,,0.00,weatherlink.com 1.10,2013-03-01 02:54:00,
2013-02-28 20:09:00,47.1,3.0,30.24,NNE,27,0.0,0.0,16,0.00,,,0.00,weatherlink.com 1.10,2013-03-01 03:09:00,
2013-02-28 20:24:00,47.3,2.0,30.25,NNE,29,1.0,1.0,15,0.00,,,0.00,weatherlink.com 1.10,2013-03-01 03:24:00,
2013-02-28 20:39:00,47.6,2.0,30.25,NNE,29,1.0,2.0,15,0.00,,,0.00,weatherlink.com 1.10,2013-03-01 03:39:00,
2013-02-28 20:54:00,47.7,2.0,30.25,NE,42,0.0,2.0,15,0.00,,,0.00,weatherlink.com 1.10,2013-03-01 03:54:00,
2013-02-28 21:09:00,47.0,3.0,30.26,NNE,30,0.0,0.0,16,0.00,,,0.00,weatherlink.com 1.10,2013-03-01 04:09:00,
2013-02-28 21:24:00,46.4,2.0,30.26,North,1,0.0,0.0,16,0.00,,,0.00,weatherlink.com 1.10,2013-03-01 04:24:00,
2013-02-28 21:39:00,46.3,2.0,30.25,North,1,0.0,0.0,16,0.00,,,0.00,weatherlink.com 1.10,2013-03-01 04:39:00,
2013-02-28 21:54:00,45.8,2.0,30.26,NNW,340,0.0,0.0,16,0.00,,,0.00,weatherlink.com 1.10,2013-03-01 04:54:00,
2013-02-28 22:09:00,45.5,2.0,30.26,NNW,342,0.0,0.0,16,0.00,,,0.00,weatherlink.com 1.10,2013-03-01 05:09:00,
2013-02-28 22:24:00,45.4,1.0,30.27,NNE,32,1.0,1.0,16,0.00,,,0.00,weatherlink.com 1.10,2013-03-01 05:24:00,
2013-02-28 22:39:00,45.1,3.0,30.27,NNW,338,0.0,3.0,17,0.00,,,0.00,weatherlink.com 1.10,2013-03-01 05:39:00,
2013-02-28 22:54:00,44.9,2.0,30.27,NE,44,0.0,2.0,17,0.00,,,0.00,weatherlink.com 1.10,2013-03-01 05:54:00,
2013-02-28 23:09:00,44.3,3.0,30.26,NE,53,2.0,3.0,18,0.00,,,0.00,weatherlink.com 1.10,2013-03-01 06:09:00,
2013-02-28 23:24:00,44.0,4.0,30.26,North,8,1.0,4.0,19,0.00,,,0.00,weatherlink.com 1.10,2013-03-01 06:24:00,
2013-02-28 23:39:00,43.8,4.0,30.27,NNW,332,2.0,6.0,19,0.00,,,0.00,weatherlink.com 1.10,2013-03-01 06:39:00,
2013-02-28 23:54:00,44.3,3.0,30.26,NE,50,0.0,1.0,18,0.00,,,0.00,weatherlink.com 1.10,2013-03-01 06:54:00,